This demonstration page uses our WeatherBlox Daily Observations layout. Learn more.

Hourly Observations for August 20, 2017

Temp ( °F °C ) Dew Point ( °F °C ) Humidity (%) Winds ( mph kmh ) Pressure ( in mb ) Visibility ( mi km ) Precip ( " mm )
12:15 am 00:15 Clear 76 24.6 62 16.7 62 62 E 13 20 29.77 1008 10 16.09344 0 0
12:35 am 00:35 Clear 74 23.5 63 17.1 67 67 E 10 17 29.77 1008 10 16.09344 0 0
12:55 am 00:55 Clear 74 23.5 63 17.4 69 69 E 8 13 29.77 1008 10 16.09344 0 0
1:15 am 01:15 Clear 74 23.2 64 17.5 70 70 ESE 8 13 29.77 1008 10 16.09344 0 0
1:35 am 01:35 Clear 74 23.6 64 17.5 69 69 SE 9 15 29.77 1008 10 16.09344 0 0
1:55 am 01:55 Clear 73 22.8 64 17.8 74 74 ESE 9 15 29.77 1008 10 16.09344 0 0
2:15 am 02:15 Clear 73 22.5 64 17.8 75 75 ESE 9 15 29.77 1008 10 16.09344 0 0
2:35 am 02:35 Clear 72 22 64 17.8 77 77 ESE 9 15 29.8 1009 10 16.09344 0 0
2:55 am 02:55 Clear 71 21.6 63 17.2 76 76 ESE 13 20 29.8 1009 10 16.09344 0 0
3:15 am 03:15 Clear 70 21 63 17 78 78 ESE 14 22 29.8 1009 10 16.09344 0 0
3:35 am 03:35 Clear 68 20.1 62 16.8 81 81 ESE 12 19 29.8 1009 10 16.09344 0 0
3:55 am 03:55 Clear 67 19.6 62 16.5 82 82 SE 9 15 29.8 1009 10 16.09344 0 0
4:15 am 04:15 Clear 67 19.4 62 16.5 83 83 SSE 9 15 29.8 1009 10 16.09344 0 0
4:35 am 04:35 Clear 66 19 62 16.5 86 86 SE 6 9 29.8 1009 10 16.09344 0 0
4:55 am 04:55 Clear 65 18.3 62 16.4 89 89 SE 6 9 29.83 1010 10 16.09344 0 0
5:15 am 05:15 Clear 65 18.2 62 16.5 90 90 SE 5 7 29.8 1009 10 16.09344 0 0
5:35 am 05:35 Clear 65 18.1 62 16.5 90 90 ESE 5 7 29.83 1010 10 16.09344 0 0
5:55 am 05:55 Clear 65 18.3 62 16.8 91 91 SE 7 11 29.8 1009 10 16.09344 0 0
6:15 am 06:15 Clear 64 18 62 16.5 91 91 E 6 9 29.83 1010 10 16.09344 0 0
6:35 am 06:35 Clear 64 17.7 62 16.5 93 93 ESE 7 11 29.83 1010 10 16.09344 0 0
6:55 am 06:55 Sunny 64 17.7 62 16.5 93 93 SE 7 11 29.83 1010 10 16.09344 0 0
7:15 am 07:15 Sunny 64 18 62 16.7 92 92 ESE 5 7 29.83 1010 10 16.09344 0 0
7:35 am 07:35 Sunny 65 18.1 62 16.9 93 93 E 3 6 29.83 1010 10 16.09344 0 0
7:55 am 07:55 Sunny 66 18.9 63 17.2 90 90 E 6 9 29.85 1011 10 16.09344 0 0
8:15 am 08:15 Sunny 67 19.4 64 17.5 89 89 E 8 13 29.83 1010 10 16.09344 0 0
8:35 am 08:35 Sunny 68 19.8 64 17.7 88 88 E 5 7 29.85 1011 10 16.09344 0 0
8:55 am 08:55 Sunny 69 20.5 65 18.5 88 88 NE 6 9 29.85 1011 10 16.09344 0 0
9:15 am 09:15 Partly Cloudy 70 20.9 65 18.6 87 87 NNE 7 11 29.85 1011 10 16.09344 0 0
9:35 am 09:35 Partly Cloudy 71 21.7 66 19 85 85 E 7 11 29.85 1011 10 16.09344 0 0
9:55 am 09:55 Partly Cloudy 72 22.1 66 19.1 83 83 E 5 7 29.85 1011 10 16.09344 0 0
10:15 am 10:15 Sunny 73 22.9 67 19.2 80 80 E 5 7 29.83 1010 10 16.09344 0 0
10:35 am 10:35 Sunny 75 24 67 19.4 76 76 SSE 9 15 29.83 1010 10 16.09344 0 0
10:55 am 10:55 Sunny 76 24.6 68 19.8 75 75 SE 6 9 29.83 1010 10 16.09344 0 0
11:15 am 11:15 Sunny 78 25.4 68 20.1 73 73 S 5 7 29.83 1010 10 16.09344 0 0
11:35 am 11:35 Sunny 78 25.8 68 20.1 71 71 SE 3 6 29.83 1010 10 16.09344 0 0
11:55 am 11:55 Sunny 80 26.4 69 20.3 69 69 E 3 6 29.8 1009 10 16.09344 0 0
12:15 pm 12:15 Sunny 80 26.7 71 21.5 73 73 ENE 7 11 29.8 1009 10 16.09344 0 0
12:35 pm 12:35 Sunny 81 27 70 21 70 70 ENE 7 11 29.8 1009 10 16.09344 0 0
12:55 pm 12:55 Sunny 81 27.3 70 21.3 70 70 ENE 7 11 29.8 1009 10 16.09344 0 0
1:15 pm 13:15 Sunny 82 27.9 71 21.8 69 69 E 6 9 29.8 1009 10 16.09344 0 0
1:35 pm 13:35 Sunny 83 28.4 71 21.4 66 66 E 9 15 29.8 1009 10 16.09344 0 0
1:55 pm 13:55 Sunny 83 28.6 72 22.3 69 69 ESE 8 13 29.8 1009 10 16.09344 0 0
2:15 pm 14:15 Sunny 84 28.7 72 22 67 67 E 8 13 29.8 1009 10 16.09344 0 0
2:35 pm 14:35 Sunny 85 29.2 72 22.2 66 66 E 8 13 29.8 1009 10 16.09344 0 0
2:55 pm 14:55 Sunny 85 29.5 72 22.3 65 65 ESE 8 13 29.77 1008 10 16.09344 0 0
3:15 pm 15:15 Sunny 84 29.1 71 21.6 64 64 E 8 13 29.77 1008 10 16.09344 0 0
3:35 pm 15:35 Sunny 85 29.3 71 21.7 64 64 E 8 13 29.77 1008 10 16.09344 0 0
3:55 pm 15:55 Sunny 85 29.6 73 22.5 66 66 E 7 11 29.77 1008 10 16.09344 0 0
4:15 pm 16:15 Sunny 85 29.6 72 22.2 64 64 ENE 8 13 29.77 1008 10 16.09344 0 0
4:35 pm 16:35 Sunny 86 29.9 71 21.8 62 62 E 9 15 29.74 1007 10 16.09344 0 0
4:55 pm 16:55 Sunny 84 29 73 22.7 69 69 ENE 7 11 29.77 1008 10 16.09344 0 0
5:15 pm 17:15 Sunny 84 28.9 73 22.9 70 70 ENE 9 15 29.77 1008 10 16.09344 0 0
5:35 pm 17:35 Sunny 84 28.9 74 23.2 71 71 ENE 6 9 29.77 1008 10 16.09344 0 0
5:55 pm 17:55 Sunny 84 29 74 23.2 71 71 ENE 7 11 29.77 1008 10 16.09344 0 0
6:15 pm 18:15 Sunny 83 28.5 74 23.1 73 73 ENE 7 11 29.77 1008 10 16.09344 0 0
6:35 pm 18:35 Sunny 84 28.7 74 23.5 74 74 NE 7 11 29.77 1008 10 16.09344 0 0
6:55 pm 18:55 Sunny 84 28.9 74 23.2 71 71 NE 6 9 29.77 1008 10 16.09344 0 0
7:15 pm 19:15 Sunny 84 28.9 74 23.3 72 72 NE 6 9 29.77 1008 10 16.09344 0 0
7:35 pm 19:35 Sunny 84 28.7 74 23.3 73 73 ENE 6 9 29.77 1008 10 16.09344 0 0
7:55 pm 19:55 Sunny 82 28 74 23.2 75 75 ENE 8 13 29.77 1008 10 16.09344 0 0
8:15 pm 20:15 Sunny 82 27.5 75 23.8 80 80 ENE 7 11 29.77 1008 10 16.09344 0 0
8:35 pm 20:35 Clear 80 26.6 75 24 86 86 NE 6 9 29.77 1008 10 16.09344 0 0
8:55 pm 20:55 Clear 79 26.1 74 23.6 86 86 ENE 7 11 29.83 1010 10 16.09344 0 0
9:15 pm 21:15 Clear 78 25.7 75 23.7 89 89 ENE 7 11 29.83 1010 10 16.09344 0 0
9:35 pm 21:35 Clear 78 25.3 74 23.5 90 90 ENE 7 11 29.83 1010 10 16.09344 0 0
9:55 pm 21:55 Clear 77 25.1 74 23.4 90 90 NE 6 9 29.83 1010 10 16.09344 0 0
10:15 pm 22:15 Clear 77 25 74 23.1 89 89 ENE 9 15 29.85 1011 10 16.09344 0 0
10:35 pm 22:35 Clear 76 24.7 73 23 90 90 ENE 9 15 29.85 1011 10 16.09344 0 0
10:55 pm 22:55 Clear 76 24.3 73 22.8 91 91 ENE 7 11 29.85 1011 10 16.09344 0 0
11:15 pm 23:15 Clear 75 24 73 22.7 92 92 ENE 7 11 29.85 1011 10 16.09344 0 0
11:35 pm 23:35 Clear 75 23.7 73 22.5 93 93 ENE 7 11 29.85 1011 7 11.265408 0 0
11:55 pm 23:55 Clear 74 23.5 72 22.3 93 93 ENE 3 6 29.85 1011 7 11.265408 0 0

Powered by AerisWeather